GW3250 Weather Reports


Display with metric or nautical units.
time (UTC)temp
F
wind
direction
speed
MPH
gust
MPH
rain 1hr
in
rain 24hr
in
rain mn
in
humidity
%
barometer
mb
20260831050803 64 165 0.0 0.0 0.00 0.00 0.00 97 1018.3
20260831050301 64 165 0.0 0.0 0.00 0.00 0.00 97 1018.2
20260831045750 64 165 0.0 0.0 0.00 0.00 0.00 97 1018.2
20260831045245 64 165 0.0 0.0 0.00 0.00 0.00 97 1018.0
20260831044740 65 165 0.0 0.0 0.00 0.00 0.00 96 1018.2
20260831044234 65 182 0.0 0.0 0.00 0.00 0.00 97 1018.0
20260831043731 65 182 0.0 0.0 0.00 0.00 0.00 97 1018.3
20260831043231 65 182 1.0 1.0 0.00 0.00 0.00 97 1018.3
20260831042725 65 182 0.0 0.0 0.00 0.00 0.00 96 1018.2
20260831042220 65 194 0.0 0.0 0.00 0.00 0.00 97 1018.2
20260831041715 65 194 0.0 0.0 0.00 0.00 0.00 97 1018.3
20260831041214 65 194 0.0 0.0 0.00 0.00 0.00 97 1018.4
20260831040709 65 194 0.0 0.0 0.00 0.00 0.00 98 1018.2
20260831040208 65 193 0.0 0.0 0.00 0.00 0.00 98 1018.1
20260831035706 65 183 1.0 1.0 0.00 0.00 0.00 98 1018.3
20260831035156 65 195 1.0 1.0 0.00 0.00 0.00 98 1018.5
20260831034655 65 195 0.0 0.0 0.00 0.00 0.00 99 1018.3
20260831034150 65 195 0.0 0.0 0.00 0.00 0.00 98 1018.1
20260831033646 66 195 0.0 0.0 0.00 0.00 0.00 98 1018.2
20260831033140 66 195 1.0 2.0 0.00 0.00 0.00 98 1018.1
20260831032640 66 195 0.0 1.0 0.00 0.00 0.00 98 1018.1
20260831032136 66 195 0.0 0.0 0.00 0.00 0.00 98 1018.4
20260831031636 66 195 0.0 0.0 0.00 0.00 0.00 98 1018.4
20260831031135 66 195 0.0 0.0 0.00 0.00 0.00 98 1018.4
20260831030634 66 195 0.0 0.0 0.00 0.00 0.00 98 1018.0
20260831030133 66 195 0.0 1.0 0.00 0.00 0.00 98 1018.4
20260831025632 66 195 0.0 0.0 0.00 0.00 0.00 99 1018.3
20260831025127 66 195 0.0 1.0 0.00 0.00 0.00 99 1018.1
20260831024623 66 195 0.0 0.0 0.00 0.00 0.00 99 1018.4
20260831024122 66 194 0.0 0.0 0.00 0.00 0.00 98 1018.3
20260831023620 66 194 0.0 0.0 0.00 0.00 0.00 98 1018.4
20260831023120 66 194 0.0 0.0 0.00 0.00 0.00 98 1018.2
20260831022615 66 195 0.0 1.0 0.00 0.00 0.00 98 1018.6
20260831022110 66 195 0.0 0.0 0.00 0.00 0.00 98 1018.4
20260831021609 66 195 0.0 0.0 0.00 0.00 0.00 97 1018.5
20260831021104 66 195 0.0 0.0 0.00 0.00 0.00 97 1018.3
20260831020559 66 195 1.0 1.0 0.00 0.00 0.00 97 1018.6
20260831020054 66 195 0.0 0.0 0.00 0.00 0.00 97 1018.2
20260831015550 66 195 0.0 0.0 0.00 0.00 0.00 96 1018.5
20260831015044 67 195 0.0 0.0 0.00 0.00 0.00 96 1018.3
20260831014539 67 195 0.0 1.0 0.00 0.00 0.00 96 1018.4
20260831014035 67 195 0.0 0.0 0.00 0.00 0.00 96 1018.1
20260831013531 67 195 0.0 1.0 0.00 0.00 0.00 96 1018.4
20260831013025 66 195 0.0 0.0 0.00 0.00 0.00 97 1018.2
20260831012520 66 195 0.0 0.0 0.00 0.00 0.00 97 1018.4
20260831012015 67 195 0.0 0.0 0.00 0.00 0.00 96 1018.3
20260831011514 67 195 0.0 0.0 0.00 0.00 0.00 96 1018.2
20260831011010 67 195 0.0 0.0 0.00 0.00 0.00 96 1018.3
20260831010505 67 195 0.0 0.0 0.00 0.00 0.00 96 1018.0
20260831010002 67 195 0.0 0.0 0.00 0.00 0.00 96 1018.0
20260831005457 67 195 0.0 1.0 0.00 0.00 0.00 96 1018.0
20260831004955 67 195 0.0 0.0 0.00 0.00 0.00 96 1018.2
20260831004452 67 194 0.0 1.0 0.00 0.00 0.00 96 1017.7
20260831003947 67 194 0.0 0.0 0.00 0.00 0.00 95 1017.7
20260831003443 67 194 0.0 0.0 0.00 0.00 0.00 95 1017.9
20260831002942 68 194 0.0 0.0 0.00 0.00 0.00 95 1017.6
20260831002441 68 194 1.0 1.0 0.00 0.00 0.00 95 1017.7
20260831001937 68 194 1.0 1.0 0.00 0.00 0.00 94 1017.6
20260831001427 68 194 1.0 2.0 0.00 0.00 0.00 94 1017.5
20260831000924 68 194 0.0 1.0 0.00 0.00 0.00 94 1017.4
20260831000419 68 186 0.0 1.0 0.00 0.00 0.00 95 1017.5
20260830235912 68 179 0.0 1.0 0.00 0.00 0.00 95 1017.4
20260830235407 68 179 0.0 0.0 0.00 0.00 0.00 95 1017.1
20260830234902 68 179 1.0 1.0 0.00 0.00 0.00 95 1017.2
20260830234357 68 179 1.0 1.0 0.00 0.00 0.00 94 1017.2
20260830233853 68 176 1.0 1.0 0.00 0.00 0.00 94 1017.2
20260830233348 69 184 1.0 1.0 0.00 0.00 0.00 94 1017.0
20260830232844 69 182 0.0 1.0 0.00 0.00 0.00 93 1017.4
20260830232339 69 199 0.0 1.0 0.00 0.00 0.00 93 1017.2
20260830231836 69 175 1.0 1.0 0.00 0.00 0.00 92 1017.1
20260830231336 70 172 1.0 1.0 0.00 0.00 0.00 91 1017.3
20260830230830 70 184 0.0 0.0 0.00 0.00 0.00 92 1016.9
20260830230325 69 197 2.0 3.0 0.00 0.00 0.00 93 1016.9
20260830225819 69 137 0.0 0.0 0.00 0.00 0.00 95 1016.9
20260830225314 69 137 0.0 0.0 0.00 0.00 0.00 95 1016.7
20260830224809 69 137 0.0 0.0 0.00 0.00 0.00 95 1016.8
20260830224303 70 137 0.0 0.0 0.00 0.00 0.00 94 1017.0
20260830223800 70 137 0.0 0.0 0.00 0.00 0.00 92 1017.0
20260830223255 71 137 0.0 0.0 0.00 0.00 0.00 90 1016.8
20260830222749 71 137 1.0 2.0 0.00 0.00 0.00 89 1017.0
20260830222246 71 137 0.0 0.0 0.00 0.00 0.00 89 1016.9
20260830221740 71 137 0.0 0.0 0.00 0.00 0.00 90 1017.0
20260830221238 71 137 1.0 1.0 0.00 0.00 0.00 90 1016.7
20260830220733 71 136 0.0 0.0 0.00 0.00 0.00 91 1016.7
20260830220231 71 136 0.0 0.0 0.00 0.00 0.00 91 1016.8
20260830215730 72 136 0.0 0.0 0.00 0.00 0.00 90 1016.9
20260830215225 71 64 0.0 0.0 0.00 0.00 0.00 90 1016.8
20260830214720 71 64 0.0 0.0 0.00 0.00 0.00 90 1016.9
20260830214215 72 64 0.0 0.0 0.00 0.00 0.00 89 1016.6
20260830213714 72 64 0.0 0.0 0.00 0.00 0.00 88 1016.6
20260830213209 72 58 0.0 0.0 0.00 0.00 0.00 89 1016.7
20260830212700 72 58 0.0 0.0 0.00 0.00 0.00 89 1016.8
20260830212155 73 58 1.0 1.0 0.00 0.00 0.00 87 1016.8
20260830211654 73 58 0.0 1.0 0.00 0.00 0.00 86 1016.5
20260830211153 73 58 0.0 1.0 0.00 0.00 0.00 86 1016.7
20260830210649 73 58 1.0 1.0 0.00 0.00 0.00 86 1016.6
20260830210149 72 59 0.0 1.0 0.00 0.00 0.00 87 1016.6
20260830205646 72 99 1.0 2.0 0.00 0.00 0.00 86 1016.8
20260830205141 73 206 0.0 0.0 0.00 0.00 0.00 88 1016.7
20260830204641 73 206 0.0 0.0 0.00 0.00 0.00 86 1016.8
20260830204140 73 206 1.0 1.0 0.00 0.00 0.00 85 1016.8
20260830203636 74 206 0.0 0.0 0.00 0.00 0.00 85 1016.5
20260830203131 75 196 1.0 1.0 0.00 0.00 0.00 84 1016.9
20260830202631 75 195 0.0 1.0 0.00 0.00 0.00 83 1016.8
20260830202126 75 110 1.0 1.0 0.00 0.00 0.00 83 1016.6
20260830201625 76 151 1.0 1.0 0.00 0.00 0.00 82 1016.6
20260830201121 76 255 0.0 0.0 0.00 0.00 0.00 82 1016.7
20260830200616 75 256 1.0 1.0 0.00 0.00 0.00 83 1016.7
20260830200115 75 256 1.0 1.0 0.00 0.00 0.00 84 1016.7
20260830195611 75 237 1.0 1.0 0.00 0.00 0.00 83 1016.8
20260830195109 75 239 1.0 1.0 0.00 0.00 0.00 83 1016.7
20260830194608 76 156 1.0 1.0 0.00 0.00 0.00 82 1017.0
20260830194103 76 156 0.0 0.0 0.00 0.00 0.00 80 1017.0
20260830193602 76 178 1.0 2.0 0.00 0.00 0.00 79 1016.9
20260830193057 76 175 1.0 2.0 0.00 0.00 0.00 81 1016.8
20260830192553 76 179 2.0 3.0 0.00 0.00 0.00 78 1017.0
20260830192047 75 196 1.0 1.0 0.00 0.00 0.00 84 1017.0
20260830191542 75 195 2.0 3.0 0.00 0.00 0.00 82 1017.0
20260830191037 75 203 2.0 2.0 0.00 0.00 0.00 82 1017.1
20260830190532 74 171 1.0 2.0 0.00 0.00 0.00 81 1017.1
20260830190028 75 179 2.0 2.0 0.00 0.00 0.00 83 1017.2
20260830185521 75 139 1.0 1.0 0.00 0.00 0.00 82 1017.2
20260830185017 76 212 2.0 3.0 0.00 0.00 0.00 82 1017.5
20260830184516 76 70 0.0 0.0 0.00 0.00 0.00 83 1017.4
20260830184012 76 217 2.0 3.0 0.00 0.00 0.00 81 1017.4
20260830183511 77 56 0.0 0.0 0.00 0.00 0.00 83 1017.3
20260830183007 76 212 0.0 1.0 0.00 0.00 0.00 83 1017.3
20260830182502 76 183 1.0 2.0 0.00 0.00 0.00 83 1017.4
20260830181959 77 214 0.0 0.0 0.00 0.00 0.00 83 1017.7
20260830181454 77 214 1.0 2.0 0.00 0.00 0.00 82 1017.5
20260830180948 78 213 1.0 1.0 0.00 0.00 0.00 79 1017.7
20260830180448 78 215 2.0 2.0 0.00 0.00 0.00 80 1017.7
20260830175946 78 179 1.0 1.0 0.00 0.00 0.00 80 1017.8
20260830175441 77 194 0.0 1.0 0.00 0.00 0.00 80 1017.6
20260830174936 78 181 1.0 1.0 0.00 0.00 0.00 79 1017.5
20260830174431 77 187 1.0 1.0 0.00 0.00 0.00 81 1017.7
20260830173921 78 204 2.0 2.0 0.00 0.00 0.00 78 1017.8
20260830173416 78 222 2.0 2.0 0.00 0.00 0.00 78 1017.8
20260830172912 79 202 2.0 3.0 0.00 0.00 0.00 77 1017.7
20260830172409 78 193 0.0 1.0 0.00 0.00 0.00 78 1017.8
20260830171904 77 173 1.0 1.0 0.00 0.00 0.00 80 1017.8
20260830171359 77 215 1.0 2.0 0.00 0.00 0.00 81 1017.9
20260830170854 76 216 1.0 2.0 0.00 0.00 0.00 84 1018.1
20260830170353 75 217 0.0 0.0 0.00 0.00 0.00 81 1018.0
20260830165851 75 232 4.0 4.0 0.00 0.00 0.00 84 1018.3
20260830165348 75 162 1.0 1.0 0.00 0.00 0.00 85 1018.0
20260830164844 75 226 2.0 2.0 0.00 0.00 0.00 86 1018.2
20260830164340 75 223 1.0 1.0 0.00 0.00 0.00 83 1018.3
20260830163837 75 230 2.0 2.0 0.00 0.00 0.00 82 1018.2
20260830163332 76 181 1.0 1.0 0.00 0.00 0.00 80 1018.1
20260830162831 76 136 1.0 1.0 0.00 0.00 0.00 82 1018.3
20260830162328 76 177 2.0 3.0 0.00 0.00 0.00 82 1018.3
20260830161828 75 220 1.0 1.0 0.00 0.00 0.00 82 1018.7
20260830161327 76 129 2.0 2.0 0.00 0.00 0.00 82 1018.7
20260830160823 75 205 1.0 1.0 0.00 0.00 0.00 85 1018.6
20260830160318 75 210 1.0 2.0 0.00 0.00 0.00 81 1018.9
20260830155814 73 295 0.0 1.0 0.00 0.00 0.00 86 1018.6
20260830155311 73 232 1.0 1.0 0.00 0.00 0.00 84 1018.6
20260830154810 73 276 3.0 4.0 0.00 0.00 0.00 84 1018.7
20260830154306 73 188 1.0 1.0 0.00 0.00 0.00 84 1019.0
20260830153803 72 186 1.0 1.0 0.00 0.00 0.00 84 1019.3
20260830153258 73 145 0.0 1.0 0.00 0.00 0.00 84 1018.7
20260830152756 73 142 2.0 3.0 0.00 0.00 0.00 81 1019.0
20260830152251 73 150 1.0 2.0 0.00 0.00 0.00 79 1019.1
20260830151751 73 155 0.0 1.0 0.00 0.00 0.00 82 1019.0
20260830151250 72 119 0.0 1.0 0.00 0.00 0.00 80 1019.4
20260830150745 72 71 1.0 1.0 0.00 0.00 0.00 80 1019.1
20260830150245 71 188 0.0 1.0 0.00 0.00 0.00 81 1019.6
20260830145740 72 129 0.0 1.0 0.00 0.00 0.00 80 1019.5
20260830145235 72 221 2.0 3.0 0.00 0.00 0.00 78 1019.2
20260830144730 71 128 1.0 2.0 0.00 0.00 0.00 81 1019.4
20260830144226 71 187 0.0 1.0 0.00 0.00 0.00 82 1019.7
20260830143722 71 195 1.0 1.0 0.00 0.00 0.00 79 1019.4
20260830143220 71 192 1.0 1.0 0.00 0.00 0.00 80 1019.4
20260830142716 70 184 1.0 2.0 0.00 0.00 0.00 80 1019.3
20260830142210 69 240 3.0 4.0 0.00 0.00 0.00 79 1019.4
20260830141706 69 213 0.0 1.0 0.00 0.00 0.00 84 1019.3
20260830141201 70 129 0.0 1.0 0.00 0.00 0.00 78 1019.6
20260830140655 69 208 2.0 2.0 0.00 0.00 0.00 78 1019.7
20260830140150 69 193 0.0 1.0 0.00 0.00 0.00 83 1019.6
20260830135646 68 249 0.0 0.0 0.00 0.00 0.00 82 1019.5
20260830135141 68 248 0.0 1.0 0.00 0.00 0.00 80 1019.8
20260830134637 67 247 0.0 1.0 0.00 0.00 0.00 81 1019.8
20260830134131 67 16 1.0 1.0 0.00 0.00 0.00 84 1019.9
20260830133627 66 342 1.0 1.0 0.00 0.00 0.00 89 1019.9
20260830133122 67 45 0.0 0.0 0.00 0.00 0.00 83 1019.5
20260830132619 67 45 0.0 0.0 0.00 0.00 0.00 80 1019.8
20260830132114 67 45 0.0 0.0 0.00 0.00 0.00 83 1019.9
20260830131613 67 45 0.0 0.0 0.00 0.00 0.00 81 1019.9
20260830131107 66 45 0.0 0.0 0.00 0.00 0.00 80 1019.9
20260830130602 66 45 0.0 0.0 0.00 0.00 0.00 83 1019.9
20260830130057 65 45 0.0 0.0 0.00 0.00 0.00 84 1020.0
20260830125551 64 45 0.0 0.0 0.00 0.00 0.00 85 1019.8
20260830125051 63 45 1.0 1.0 0.00 0.00 0.00 87 1020.0
20260830124550 62 45 1.0 1.0 0.00 0.00 0.00 87 1020.1
20260830124045 61 44 0.0 1.0 0.00 0.00 0.00 90 1020.1
20260830123543 60 45 0.0 0.0 0.00 0.00 0.00 93 1020.3
20260830123038 59 51 0.0 1.0 0.00 0.00 0.00 98 1020.4
20260830122534 58 51 1.0 1.0 0.00 0.00 0.00 99 1020.4
20260830122030 58 51 1.0 2.0 0.00 0.00 0.00 99 1020.4
20260830121526 57 51 1.0 1.0 0.00 0.00 0.00 99 1020.7
20260830121025 56 51 0.0 0.0 0.00 0.00 0.00 99 1020.5
20260830120520 56 51 0.0 0.0 0.00 0.00 0.00 99 1020.4
20260830120017 55 51 0.0 1.0 0.00 0.00 0.00 99 1020.6
20260830115513 55 50 1.0 1.0 0.00 0.00 0.00 99 1020.5
20260830115008 55 50 0.0 1.0 0.00 0.00 0.00 99 1020.5
20260830114505 54 50 0.0 1.0 0.00 0.00 0.00 99 1020.7
20260830114004 54 50 0.0 0.0 0.00 0.00 0.00 99 1020.7
20260830113459 54 50 0.0 0.0 0.00 0.00 0.00 99 1020.8
20260830112954 54 50 0.0 0.0 0.00 0.00 0.00 99 1020.9
20260830112450 54 50 0.0 0.0 0.00 0.00 0.00 99 1020.7
20260830111947 53 50 0.0 0.0 0.00 0.00 0.00 99 1020.9
20260830111442 53 50 0.0 0.0 0.00 0.00 0.00 99 1021.1
20260830110937 53 50 0.0 0.0 0.00 0.00 0.00 99 1021.1
20260830110432 53 50 0.0 0.0 0.00 0.00 0.00 99 1021.0
20260830105932 53 50 0.0 0.0 0.00 0.00 0.00 99 1020.9
20260830105428 53 50 0.0 0.0 0.00 0.00 0.00 99 1020.9
20260830104924 53 50 0.0 1.0 0.00 0.00 0.00 99 1020.9
20260830104420 53 50 0.0 0.0 0.00 0.00 0.00 99 1020.7
20260830103920 53 50 0.0 0.0 0.00 0.00 0.00 99 1020.8
20260830103416 54 50 0.0 1.0 0.00 0.00 0.00 99 1020.6
20260830102914 54 50 0.0 0.0 0.00 0.00 0.00 99 1020.5
20260830102409 54 50 0.0 0.0 0.00 0.00 0.00 99 1020.6
20260830101906 54 50 0.0 0.0 0.00 0.00 0.00 99 1020.5
20260830101401 54 50 1.0 1.0 0.00 0.00 0.00 99 1020.6
20260830100900 54 50 0.0 0.0 0.00 0.00 0.00 99 1020.6
20260830100359 54 50 0.0 0.0 0.00 0.00 0.00 99 1020.4
20260830095858 54 50 0.0 0.0 0.00 0.00 0.00 99 1020.6
20260830095354 55 50 1.0 1.0 0.00 0.00 0.00 99 1020.6
20260830094850 55 50 1.0 1.0 0.00 0.00 0.00 99 1020.7
20260830094347 55 50 0.0 0.0 0.00 0.00 0.00 99 1020.8
20260830093842 55 50 0.0 0.0 0.00 0.00 0.00 99 1020.5
20260830093337 55 50 0.0 0.0 0.00 0.00 0.00 99 1020.7
20260830092832 55 50 0.0 0.0 0.00 0.00 0.00 99 1020.6
20260830092328 55 50 0.0 1.0 0.00 0.00 0.00 99 1020.5
20260830091825 55 50 0.0 1.0 0.00 0.00 0.00 99 1020.6
20260830091324 55 50 0.0 0.0 0.00 0.00 0.00 99 1020.7
20260830090823 55 50 0.0 0.0 0.00 0.00 0.00 99 1021.0
20260830090319 55 50 0.0 0.0 0.00 0.00 0.00 99 1020.7
20260830085818 55 50 0.0 0.0 0.00 0.00 0.00 99 1020.6
20260830085314 55 50 0.0 0.0 0.00 0.00 0.00 99 1020.9
20260830084809 55 50 0.0 1.0 0.00 0.00 0.00 99 1021.0
20260830084305 55 50 0.0 0.0 0.00 0.00 0.00 99 1020.9
20260830083800 55 50 0.0 0.0 0.00 0.00 0.00 99 1020.9
20260830083256 55 50 0.0 0.0 0.00 0.00 0.00 99 1020.9
20260830082755 55 50 1.0 1.0 0.00 0.00 0.00 99 1021.0
20260830082250 55 50 0.0 1.0 0.00 0.00 0.00 99 1020.7
20260830081745 55 50 0.0 0.0 0.00 0.00 0.00 99 1020.9
20260830081239 55 50 0.0 0.0 0.00 0.00 0.00 99 1020.8
20260830080733 55 50 0.0 0.0 0.00 0.00 0.00 99 1020.7
20260830080230 55 50 0.0 0.0 0.00 0.00 0.00 99 1020.8
20260830075729 55 50 0.0 0.0 0.00 0.00 0.00 99 1020.9
20260830075225 55 50 0.0 0.0 0.00 0.00 0.00 99 1021.1
20260830074720 55 50 0.0 0.0 0.00 0.00 0.00 99 1021.1
20260830074216 55 50 0.0 0.0 0.00 0.00 0.00 99 1021.1
20260830073712 55 50 0.0 0.0 0.00 0.00 0.00 99 1021.3
20260830073208 55 50 0.0 0.0 0.00 0.00 0.00 99 1021.2
20260830072707 55 50 0.0 0.0 0.00 0.00 0.00 99 1021.2
20260830072202 55 50 0.0 1.0 0.00 0.00 0.00 99 1021.3
20260830071657 55 51 0.0 0.0 0.00 0.00 0.00 99 1021.2
20260830071156 55 50 0.0 0.0 0.00 0.00 0.00 99 1021.1
20260830070650 55 50 0.0 0.0 0.00 0.00 0.00 99 1021.1
20260830070145 55 50 0.0 0.0 0.00 0.00 0.00 99 1020.9
20260830065644 55 51 0.0 0.0 0.00 0.00 0.00 99 1020.9
20260830065143 55 50 0.0 0.0 0.00 0.00 0.00 99 1021.1
20260830064637 55 50 0.0 0.0 0.00 0.00 0.00 99 1020.8
20260830064133 55 50 0.0 0.0 0.00 0.00 0.00 99 1020.7
20260830063632 55 50 0.0 0.0 0.00 0.00 0.00 99 1020.7
20260830063131 55 50 0.0 0.0 0.00 0.00 0.00 99 1020.9
20260830062626 54 51 0.0 0.0 0.00 0.00 0.00 99 1020.8
20260830062121 54 50 0.0 0.0 0.00 0.00 0.00 99 1021.0
20260830061615 54 50 0.0 0.0 0.00 0.00 0.00 99 1020.8
20260830061112 54 50 0.0 0.0 0.00 0.00 0.00 99 1021.0
20260830060608 54 50 0.0 0.0 0.00 0.00 0.00 99 1021.0
20260830060104 54 50 0.0 0.0 0.00 0.00 0.00 99 1020.9
20260830055559 54 50 0.0 0.0 0.00 0.00 0.00 99 1020.9
20260830055056 54 50 0.0 1.0 0.00 0.00 0.00 99 1021.0
20260830054551 54 50 0.0 0.0 0.00 0.00 0.00 99 1021.1
20260830054046 54 50 0.0 0.0 0.00 0.00 0.00 99 1021.0
20260830053541 54 50 0.0 0.0 0.00 0.00 0.00 99 1021.1
20260830053040 54 50 0.0 0.0 0.00 0.00 0.00 99 1021.0
20260830052536 55 50 0.0 0.0 0.00 0.00 0.00 99 1021.3
20260830052036 55 50 0.0 0.0 0.00 0.00 0.00 99 1021.2
20260830051531 55 50 0.0 0.0 0.00 0.00 0.00 98 1021.0
20260830051027 55 50 0.0 0.0 0.00 0.00 0.00 98 1020.9